,,,PA_Meas_PMT16A,,PR_Meas_QMR101_102,,RH_Meas_QMH101,,SR_Meas_QMS101,,TA_Meas_QMH101,,GenWind,,GenWind,
date,time,status,PA,status,PR,status,RH,status,SR,status,TA,status,DirAvg,status,SpdAvg,
2009-10-06, 00:00:04,VALID,1004.31,VALID,0,VALID,89.2045,VALID,0,VALID,25.2981,VALID,340,VALID,0.619922,
2009-10-06, 00:01:04,VALID,1004.29,VALID,0,VALID,89.1892,VALID,0,VALID,25.2981,VALID,347,VALID,0.599609,
2009-10-06, 00:02:04,VALID,1004.28,VALID,0,VALID,89.0824,VALID,0,VALID,25.339,VALID,356,VALID,0.420312,
2009-10-06, 00:03:04,VALID,1004.26,VALID,0,VALID,89.113,VALID,0,VALID,25.339,VALID,348,VALID,0.528125,
2009-10-06, 00:04:04,VALID,1004.27,VALID,0,VALID,89.2121,VALID,0,VALID,25.3195,VALID,344,VALID,0.476172,
2009-10-06, 00:05:04,VALID,1004.25,VALID,0,VALID,89.2808,VALID,0,VALID,25.2981,VALID,345,VALID,0.541016,
2009-10-06, 00:06:04,VALID,1004.3,VALID,0,VALID,89.3266,VALID,0,VALID,25.2981,VALID,346,VALID,0.00195313,
2009-10-06, 00:07:04,VALID,1004.27,VALID,0,VALID,89.3723,VALID,0,VALID,25.3195,VALID,346,VALID,0.475781,
2009-10-06, 00:08:04,VALID,1004.27,VALID,0,VALID,89.4257,VALID,0,VALID,25.3195,VALID,346,VALID,0.188672,
2009-10-06, 00:09:04,VALID,1004.28,VALID,0,VALID,89.4868,VALID,0,VALID,25.3195,VALID,346,VALID,0.658984,
2009-10-06, 00:10:04,VALID,1004.27,VALID,0,VALID,89.502,VALID,0,VALID,25.3176,VALID,346,VALID,0.40625,
2009-10-06, 00:11:04,VALID,1004.25,VALID,0,VALID,89.3647,VALID,0,VALID,25.2981,VALID,356,VALID,0.552344,
2009-10-06, 00:12:04,VALID,1004.24,VALID,0,VALID,89.4944,VALID,0,VALID,25.2806,VALID,350,VALID,0.672266,
2009-10-06, 00:13:04,VALID,1004.23,VALID,0,VALID,89.7461,VALID,0,VALID,25.2221,VALID,350,VALID,0.733594,
2009-10-06, 00:14:04,VALID,1004.19,VALID,0,VALID,90.0437,VALID,0,VALID,25.1832,VALID,350,VALID,0.788281,
2009-10-06, 00:15:04,VALID,1004.15,VALID,0,VALID,90.3107,VALID,0,VALID,25.1442,VALID,350,VALID,0.645703,
2009-10-06, 00:16:04,VALID,1004.15,VALID,0,VALID,90.5014,VALID,0,VALID,25.1053,VALID,347,VALID,0.515625,
2009-10-06, 00:17:04,VALID,1004.17,VALID,0,VALID,90.6692,VALID,0,VALID,25.0663,VALID,346,VALID,0.557813,
2009-10-06, 00:18:04,VALID,1004.17,VALID,0,VALID,90.8752,VALID,0,VALID,25.0255,VALID,344,VALID,0.732031,
2009-10-06, 00:19:04,VALID,1004.15,VALID,0,VALID,91.0431,VALID,0,VALID,25.0255,VALID,344,VALID,0.625781,
2009-10-06, 00:20:04,VALID,1004.11,VALID,0,VALID,91.0507,VALID,0,VALID,25.006,VALID,341,VALID,0.641797,
2009-10-06, 00:21:04,VALID,1004.14,VALID,0,VALID,91.188,VALID,0,VALID,25.0274,VALID,353,VALID,0.761328,
2009-10-06, 00:22:04,VALID,1004.14,VALID,0,VALID,91.0507,VALID,0,VALID,25.0255,VALID,350,VALID,0.5375,
2009-10-06, 00:23:04,VALID,1004.13,VALID,0,VALID,91.0736,VALID,0,VALID,25.0255,VALID,334,VALID,0.450391,
2009-10-06, 00:24:04,VALID,1004.15,VALID,0,VALID,91.1346,VALID,0,VALID,25.0255,VALID,337,VALID,0.562891,
2009-10-06, 00:25:04,VALID,1004.15,VALID,0,VALID,91.1117,VALID,0,VALID,25.0255,VALID,345,VALID,0.421875,
2009-10-06, 00:26:04,VALID,1004.14,VALID,0,VALID,91.127,VALID,0,VALID,25.0663,VALID,338,VALID,0.500391,
2009-10-06, 00:27:04,VALID,1004.14,VALID,0,VALID,91.1117,VALID,0,VALID,25.0858,VALID,338,VALID,0.760938,
2009-10-06, 00:28:04,VALID,1004.12,VALID,0,VALID,91.0202,VALID,0,VALID,25.1034,VALID,262,VALID,0.290234,
2009-10-06, 00:29:04,VALID,1004.11,VALID,0,VALID,90.9668,VALID,0,VALID,25.1034,VALID,332,VALID,0.364453,
2009-10-06, 00:30:04,VALID,1004.1,VALID,0,VALID,90.9057,VALID,0,VALID,25.1423,VALID,352,VALID,0.644531,
2009-10-06, 00:31:04,VALID,1004.09,VALID,0,VALID,90.8371,VALID,0,VALID,25.1637,VALID,352,VALID,0.772656,
2009-10-06, 00:32:04,VALID,1004.06,VALID,0,VALID,90.6921,VALID,0,VALID,25.1813,VALID,343,VALID,0.721094,
2009-10-06, 00:33:04,VALID,1004.05,VALID,0,VALID,90.6082,VALID,0,VALID,25.2007,VALID,343,VALID,0.592969,
2009-10-06, 00:34:04,VALID,1004.05,VALID,0,VALID,90.4556,VALID,0.100563,VALID,25.2202,VALID,352,VALID,0.667969,
2009-10-06, 00:35:04,VALID,1004.05,VALID,0,VALID,90.448,VALID,0,VALID,25.2397,VALID,345,VALID,0.709766,
2009-10-06, 00:36:04,VALID,1004.03,VALID,0,VALID,90.3641,VALID,0,VALID,25.2592,VALID,346,VALID,0.765234,
2009-10-06, 00:37:04,VALID,1004.01,VALID,0,VALID,90.2497,VALID,0,VALID,25.2786,VALID,344,VALID,0.589844,
2009-10-06, 00:38:04,VALID,1004.01,VALID,0,VALID,90.2191,VALID,0.100563,VALID,25.2981,VALID,344,VALID,0.556641,
2009-10-06, 00:39:04,VALID,1004.01,VALID,0,VALID,90.1276,VALID,0.100563,VALID,25.3176,VALID,353,VALID,0.496094,
2009-10-06, 00:40:04,VALID,1004.01,VALID,0,VALID,90.0971,VALID,0.100563,VALID,25.3176,VALID,352,VALID,0.592188,
2009-10-06, 00:41:04,VALID,1004.03,VALID,0,VALID,90.0132,VALID,0,VALID,25.337,VALID,352,VALID,0.634766,
2009-10-06, 00:42:04,VALID,1004.02,VALID,0,VALID,89.975,VALID,0.100563,VALID,25.337,VALID,353,VALID,0.473828,
2009-10-06, 00:43:04,VALID,1003.99,VALID,0,VALID,89.9598,VALID,0,VALID,25.3779,VALID,355,VALID,0.532422,
2009-10-06, 00:44:04,VALID,1004.01,VALID,0,VALID,89.914,VALID,0.100563,VALID,25.3955,VALID,345,VALID,0.670313,
2009-10-06, 00:45:04,VALID,1004.02,VALID,0,VALID,89.8148,VALID,0,VALID,25.3955,VALID,348,VALID,0.607813,
2009-10-06, 00:46:04,VALID,1004.04,VALID,0,VALID,89.7385,VALID,0,VALID,25.376,VALID,351,VALID,0.65625,
2009-10-06, 00:47:04,VALID,1004.04,VALID,0,VALID,89.7996,VALID,0.100563,VALID,25.3565,VALID,349,VALID,0.624219,
2009-10-06, 00:48:04,VALID,1004.04,VALID,0,VALID,89.8377,VALID,0,VALID,25.3176,VALID,350,VALID,0.632422,
2009-10-06, 00:49:04,VALID,1004.03,VALID,0,VALID,89.8911,VALID,0.100563,VALID,25.2378,VALID,352,VALID,0.573438,
2009-10-06, 00:50:04,VALID,1004.03,VALID,0,VALID,90.2191,VALID,0,VALID,25.1618,VALID,352,VALID,0.553516,
2009-10-06, 00:51:04,VALID,1004.02,VALID,0,VALID,90.4785,VALID,0,VALID,25.1229,VALID,352,VALID,0.680078,
2009-10-06, 00:52:04,VALID,1004.03,VALID,0,VALID,90.8142,VALID,0.100563,VALID,25.0644,VALID,352,VALID,0.521094,
2009-10-06, 00:53:04,VALID,1004.04,VALID,0,VALID,91.1117,VALID,0.100563,VALID,25.0255,VALID,352,VALID,0.591797,
2009-10-06, 00:54:04,VALID,1004.04,VALID,0,VALID,91.4932,VALID,0,VALID,25.006,VALID,357,VALID,0.689844,
2009-10-06, 00:55:04,VALID,1003.99,VALID,0,VALID,91.5618,VALID,0.100563,VALID,25.0255,VALID,357,VALID,0.405469,
2009-10-06, 00:56:04,VALID,1003.98,VALID,0,VALID,91.5847,VALID,0,VALID,25.0469,VALID,357,VALID,0.51875,
2009-10-06, 00:57:04,VALID,1004.01,VALID,0,VALID,91.6991,VALID,0,VALID,25.006,VALID,357,VALID,0.778906,
2009-10-06, 00:58:04,VALID,1003.98,VALID,0,VALID,91.867,VALID,0,VALID,25.0079,VALID,357,VALID,0.467187,
2009-10-06, 00:59:04,VALID,1003.97,VALID,0,VALID,91.8212,VALID,0,VALID,25.0469,VALID,356,VALID,0.658203,
2009-10-06, 01:00:04,VALID,1003.94,VALID,0,VALID,91.6686,VALID,0,VALID,25.0255,VALID,348,VALID,0.649609,
2009-10-06, 01:01:04,VALID,1003.92,VALID,0,VALID,91.7297,VALID,0,VALID,25.0663,VALID,348,VALID,0.595703,
2009-10-06, 01:02:04,VALID,1003.92,VALID,0,VALID,91.6152,VALID,0,VALID,25.0644,VALID,348,VALID,0.672266,
2009-10-06, 01:03:04,VALID,1003.91,VALID,0,VALID,91.5695,VALID,0,VALID,25.1053,VALID,350,VALID,0.694922,
2009-10-06, 01:04:04,VALID,1003.89,VALID,0,VALID,91.6152,VALID,0,VALID,25.1442,VALID,343,VALID,0.622656,
2009-10-06, 01:05:04,VALID,1003.89,VALID,0,VALID,91.6076,VALID,0,VALID,25.2416,VALID,344,VALID,0.634375,
2009-10-06, 01:06:04,VALID,1003.85,VALID,0,VALID,91.3864,VALID,0,VALID,25.2416,VALID,344,VALID,0.646094,
2009-10-06, 01:07:04,VALID,1003.89,VALID,0,VALID,91.1651,VALID,0,VALID,25.3,VALID,342,VALID,0.636719,
2009-10-06, 01:08:04,VALID,1003.87,VALID,0,VALID,90.9973,VALID,0,VALID,25.339,VALID,348,VALID,0.586328,
2009-10-06, 01:09:04,VALID,1003.87,VALID,0,VALID,90.9897,VALID,0,VALID,25.3974,VALID,339,VALID,0.490234,
2009-10-06, 01:10:04,VALID,1003.86,VALID,0,VALID,90.654,VALID,0,VALID,25.4344,VALID,339,VALID,0.337109,
2009-10-06, 01:11:04,VALID,1003.88,VALID,0,VALID,90.4633,VALID,0,VALID,25.4558,VALID,345,VALID,0.473828,
2009-10-06, 01:12:04,VALID,1003.89,VALID,0,VALID,90.4404,VALID,0,VALID,25.4948,VALID,335,VALID,0.543359,
2009-10-06, 01:13:04,VALID,1003.89,VALID,0,VALID,90.242,VALID,0.100563,VALID,25.5123,VALID,338,VALID,0.295703,
2009-10-06, 01:14:04,VALID,1003.88,VALID,0,VALID,90.0894,VALID,0,VALID,25.5532,VALID,338,VALID,0.215625,
2009-10-06, 01:15:04,VALID,1003.9,VALID,0,VALID,90.036,VALID,0,VALID,25.5707,VALID,338,VALID,0.522266,
2009-10-06, 01:16:04,VALID,1003.9,VALID,0,VALID,89.9064,VALID,0,VALID,25.5883,VALID,338,VALID,0.0816406,
2009-10-06, 01:17:04,VALID,1003.87,VALID,0,VALID,89.8224,VALID,0.100563,VALID,25.6311,VALID,338,VALID,0.217187,
2009-10-06, 01:18:04,VALID,1003.88,VALID,0,VALID,89.6775,VALID,0,VALID,25.6486,VALID,338,VALID,0.284375,
2009-10-06, 01:19:04,VALID,1003.84,VALID,0,VALID,89.5783,VALID,0.100563,VALID,25.6486,VALID,338,VALID,0.348047,
2009-10-06, 01:20:04,VALID,1003.85,VALID,0,VALID,89.4334,VALID,0,VALID,25.6292,VALID,340,VALID,0.433984,
2009-10-06, 01:21:04,VALID,1003.83,VALID,0,VALID,89.6241,VALID,0.100563,VALID,25.6486,VALID,350,VALID,0.602344,
2009-10-06, 01:22:04,VALID,1003.83,VALID,0,VALID,89.4868,VALID,0.100563,VALID,25.6681,VALID,347,VALID,0.697266,
2009-10-06, 01:23:04,VALID,1003.84,VALID,0,VALID,89.4563,VALID,0,VALID,25.6292,VALID,350,VALID,0.514063,
2009-10-06, 01:24:04,VALID,1003.82,VALID,0,VALID,89.502,VALID,0.100563,VALID,25.5902,VALID,346,VALID,0.631641,
2009-10-06, 01:25:04,VALID,1003.82,VALID,0,VALID,89.4868,VALID,0.100563,VALID,25.5318,VALID,346,VALID,0.652344,
2009-10-06, 01:26:04,VALID,1003.83,VALID,0,VALID,89.7767,VALID,0,VALID,25.4928,VALID,349,VALID,0.753906,
2009-10-06, 01:27:04,VALID,1003.83,VALID,0,VALID,89.9979,VALID,0,VALID,25.4539,VALID,342,VALID,0.656641,
2009-10-06, 01:28:04,VALID,1003.82,VALID,0,VALID,90.1276,VALID,0,VALID,25.4539,VALID,343,VALID,0.366406,
2009-10-06, 01:29:04,VALID,1003.82,VALID,0,VALID,90.1429,VALID,0,VALID,25.4734,VALID,355,VALID,0.407422,
2009-10-06, 01:30:04,VALID,1003.82,VALID,0,VALID,90.0742,VALID,0,VALID,25.5337,VALID,354,VALID,0.434766,
2009-10-06, 01:31:04,VALID,1003.81,VALID,0,VALID,90.0589,VALID,0,VALID,25.5532,VALID,304,VALID,0.157813,
2009-10-06, 01:32:04,VALID,1003.8,VALID,0,VALID,90.0742,VALID,0,VALID,25.5318,VALID,304,VALID,0.184375,
2009-10-06, 01:33:04,VALID,1003.79,VALID,0,VALID,90.0132,VALID,0,VALID,25.5532,VALID,304,VALID,0.150391,
2009-10-06, 01:34:04,VALID,1003.78,VALID,0,VALID,89.9445,VALID,0,VALID,25.5318,VALID,304,VALID,0.158203,
2009-10-06, 01:35:04,VALID,1003.77,VALID,0,VALID,89.914,VALID,0.100563,VALID,25.5104,VALID,304,VALID,0.273828,
2009-10-06, 01:36:04,VALID,1003.77,VALID,0,VALID,89.914,VALID,0,VALID,25.4928,VALID,304,VALID,0.345313,
2009-10-06, 01:37:04,VALID,1003.79,VALID,0,VALID,89.9064,VALID,0,VALID,25.4734,VALID,304,VALID,0.444141,
2009-10-06, 01:38:04,VALID,1003.76,VALID,0,VALID,89.9826,VALID,0.100563,VALID,25.4539,VALID,331,VALID,0.259766,
2009-10-06, 01:39:04,VALID,1003.77,VALID,0,VALID,90.2649,VALID,0,VALID,25.4344,VALID,331,VALID,0.0648438,
2009-10-06, 01:40:04,VALID,1003.75,VALID,0,VALID,90.448,VALID,0.100563,VALID,25.4149,VALID,331,VALID,0,
2009-10-06, 01:41:04,VALID,1003.73,VALID,0,VALID,90.4251,VALID,0,VALID,25.4149,VALID,331,VALID,0,
2009-10-06, 01:42:04,VALID,1003.72,VALID,0,VALID,90.4327,VALID,0,VALID,25.4149,VALID,331,VALID,0.125781,
2009-10-06, 01:43:04,VALID,1003.74,VALID,0,VALID,90.4938,VALID,0.100563,VALID,25.3955,VALID,331,VALID,0,
2009-10-06, 01:44:04,VALID,1003.74,VALID,0,VALID,90.6692,VALID,0.100563,VALID,25.4149,VALID,329,VALID,0.378906,
2009-10-06, 01:45:04,VALID,1003.73,VALID,0,VALID,90.5701,VALID,0.100563,VALID,25.3955,VALID,328,VALID,0.00195313,
2009-10-06, 01:46:04,VALID,1003.74,VALID,0,VALID,90.593,VALID,0.100563,VALID,25.3955,VALID,328,VALID,0,
2009-10-06, 01:47:04,VALID,1003.72,VALID,0,VALID,90.6082,VALID,0.100563,VALID,25.376,VALID,328,VALID,0.00429688,
2009-10-06, 01:48:04,VALID,1003.75,VALID,0,VALID,90.7226,VALID,0.100563,VALID,25.376,VALID,328,VALID,0.0140625,
2009-10-06, 01:49:04,VALID,1003.74,VALID,0,VALID,90.7379,VALID,0.100563,VALID,25.376,VALID,328,VALID,0,
2009-10-06, 01:50:04,VALID,1003.7,VALID,0,VALID,90.776,VALID,0,VALID,25.3565,VALID,328,VALID,0,
2009-10-06, 01:51:04,VALID,1003.67,VALID,0,VALID,90.8523,VALID,0,VALID,25.337,VALID,328,VALID,0.240625,
2009-10-06, 01:52:04,VALID,1003.65,VALID,0,VALID,90.8752,VALID,0,VALID,25.3157,VALID,328,VALID,0.0617188,
2009-10-06, 01:53:04,VALID,1003.64,VALID,0,VALID,90.9744,VALID,0.100563,VALID,25.337,VALID,328,VALID,0,
2009-10-06, 01:54:04,VALID,1003.62,VALID,0,VALID,91.0812,VALID,0,VALID,25.337,VALID,328,VALID,0,
2009-10-06, 01:55:04,VALID,1003.59,VALID,0,VALID,91.1804,VALID,0,VALID,25.2962,VALID,328,VALID,0.03125,
2009-10-06, 01:56:04,VALID,1003.56,VALID,0,VALID,91.249,VALID,0.100563,VALID,25.2981,VALID,328,VALID,0.117188,
2009-10-06, 01:57:04,VALID,1003.55,VALID,0,VALID,91.3558,VALID,0,VALID,25.2786,VALID,328,VALID,0.225,
2009-10-06, 01:58:04,VALID,1003.56,VALID,0,VALID,91.455,VALID,0,VALID,25.2007,VALID,328,VALID,0.302734,
2009-10-06, 01:59:04,VALID,1003.54,VALID,0,VALID,91.6152,VALID,0,VALID,25.2027,VALID,328,VALID,0.236328,
2009-10-06, 02:00:04,VALID,1003.5,VALID,0,VALID,91.6763,VALID,0,VALID,25.1637,VALID,328,VALID,0.231641,
2009-10-06, 02:01:04,VALID,1003.53,VALID,0,VALID,91.8365,VALID,0,VALID,25.1461,VALID,328,VALID,0.159766,
2009-10-06, 02:02:04,VALID,1003.5,VALID,0,VALID,91.9814,VALID,0,VALID,25.0858,VALID,328,VALID,0.160938,
2009-10-06, 02:03:04,VALID,1003.5,VALID,0,VALID,92.1264,VALID,0,VALID,25.0858,VALID,328,VALID,0.324609,
2009-10-06, 02:04:04,VALID,1003.51,VALID,0,VALID,92.2561,VALID,0,VALID,25.0663,VALID,328,VALID,0.219922,
2009-10-06, 02:05:04,VALID,1003.51,VALID,0,VALID,92.3629,VALID,0,VALID,25.0274,VALID,328,VALID,0.35625,
2009-10-06, 02:06:04,VALID,1003.49,VALID,0,VALID,92.5154,VALID,0,VALID,25.0274,VALID,328,VALID,0.177344,
2009-10-06, 02:07:04,VALID,1003.48,VALID,0,VALID,92.6528,VALID,0,VALID,25.0274,VALID,328,VALID,0.335156,
2009-10-06, 02:08:04,VALID,1003.47,VALID,0,VALID,92.6222,VALID,0,VALID,25.0079,VALID,328,VALID,0.0175781,
2009-10-06, 02:09:04,VALID,1003.44,VALID,0,VALID,92.5765,VALID,0,VALID,24.9885,VALID,328,VALID,0,
2009-10-06, 02:10:04,VALID,1003.44,VALID,0,VALID,92.5765,VALID,0,VALID,24.9904,VALID,328,VALID,0,
2009-10-06, 02:11:04,VALID,1003.45,VALID,0,VALID,92.6222,VALID,0,VALID,24.9282,VALID,328,VALID,0.126563,
2009-10-06, 02:12:04,VALID,1003.42,VALID,0,VALID,92.8053,VALID,0,VALID,24.969,VALID,328,VALID,0.231641,
2009-10-06, 02:13:04,VALID,1003.43,VALID,0,VALID,92.9198,VALID,0,VALID,24.969,VALID,328,VALID,0.053125,
2009-10-06, 02:14:04,VALID,1003.39,VALID,0,VALID,92.9274,VALID,0,VALID,24.9671,VALID,328,VALID,0,
2009-10-06, 02:15:04,VALID,1003.4,VALID,0,VALID,92.7977,VALID,0,VALID,25.0079,VALID,328,VALID,0.00234375,
2009-10-06, 02:16:04,VALID,1003.37,VALID,0,VALID,92.7062,VALID,0,VALID,24.9476,VALID,328,VALID,0.185156,
2009-10-06, 02:17:04,VALID,1003.39,VALID,0,VALID,92.7977,VALID,0,VALID,24.969,VALID,328,VALID,0.264062,
2009-10-06, 02:18:04,VALID,1003.38,VALID,0,VALID,92.729,VALID,0,VALID,24.969,VALID,328,VALID,0.0078125,
2009-10-06, 02:19:04,VALID,1003.35,VALID,0,VALID,92.6604,VALID,0,VALID,24.9495,VALID,328,VALID,0,
2009-10-06, 02:20:04,VALID,1003.38,VALID,0,VALID,92.6375,VALID,0,VALID,24.9495,VALID,328,VALID,0.141406,
2009-10-06, 02:21:04,VALID,1003.36,VALID,0,VALID,92.668,VALID,0,VALID,24.9495,VALID,330,VALID,0.388672,
2009-10-06, 02:22:04,VALID,1003.37,VALID,0,VALID,92.6985,VALID,0,VALID,24.9495,VALID,330,VALID,0,
2009-10-06, 02:23:04,VALID,1003.35,VALID,0,VALID,92.5765,VALID,0,VALID,24.9106,VALID,330,VALID,0.178125,
2009-10-06, 02:24:04,VALID,1003.32,VALID,0,VALID,92.6299,VALID,0,VALID,24.8911,VALID,330,VALID,0.135156,
2009-10-06, 02:25:04,VALID,1003.36,VALID,0,VALID,92.8587,VALID,0,VALID,24.8911,VALID,330,VALID,0.0078125,
2009-10-06, 02:26:04,VALID,1003.38,VALID,0,VALID,92.935,VALID,0,VALID,24.8911,VALID,330,VALID,0.137109,
2009-10-06, 02:27:04,VALID,1003.35,VALID,0,VALID,92.9045,VALID,0,VALID,24.8911,VALID,330,VALID,0,
2009-10-06, 02:28:04,VALID,1003.33,VALID,0,VALID,92.8892,VALID,0,VALID,24.8716,VALID,330,VALID,0,
2009-10-06, 02:29:04,VALID,1003.33,VALID,0,VALID,92.935,VALID,0,VALID,24.8716,VALID,330,VALID,0,
2009-10-06, 02:30:04,VALID,1003.3,VALID,0,VALID,93.0189,VALID,0,VALID,24.893,VALID,330,VALID,0.264062,
2009-10-06, 02:31:04,VALID,1003.31,VALID,0,VALID,93.0495,VALID,0,VALID,24.8911,VALID,330,VALID,0.157813,
2009-10-06, 02:32:04,VALID,1003.27,VALID,0,VALID,93.08,VALID,0,VALID,24.9106,VALID,330,VALID,0.301953,
2009-10-06, 02:33:04,VALID,1003.26,VALID,0,VALID,92.9579,VALID,0,VALID,24.8716,VALID,330,VALID,0.203125,
2009-10-06, 02:34:04,VALID,1003.25,VALID,0,VALID,92.9503,VALID,0,VALID,24.8716,VALID,330,VALID,0.387891,
2009-10-06, 02:35:04,VALID,1003.21,VALID,0,VALID,92.9579,VALID,0,VALID,24.8522,VALID,330,VALID,0.319531,
2009-10-06, 02:36:04,VALID,1003.23,VALID,0,VALID,92.9503,VALID,0,VALID,24.8132,VALID,330,VALID,0.241406,
2009-10-06, 02:37:04,VALID,1003.18,VALID,0,VALID,93.0647,VALID,0,VALID,24.7937,VALID,330,VALID,0.205469,
2009-10-06, 02:38:04,VALID,1003.18,VALID,0,VALID,93.1944,VALID,0,VALID,24.8132,VALID,330,VALID,0,
2009-10-06, 02:39:04,VALID,1003.21,VALID,0,VALID,93.2478,VALID,0,VALID,24.8132,VALID,330,VALID,0.0640625,
2009-10-06, 02:40:04,VALID,1003.21,VALID,0,VALID,93.2325,VALID,0,VALID,24.7956,VALID,330,VALID,0,
2009-10-06, 02:41:04,VALID,1003.21,VALID,0,VALID,93.202,VALID,0,VALID,24.7548,VALID,330,VALID,0,
2009-10-06, 02:42:04,VALID,1003.21,VALID,0,VALID,93.2631,VALID,0,VALID,24.7761,VALID,330,VALID,0,
2009-10-06, 02:43:04,VALID,1003.21,VALID,0,VALID,93.3088,VALID,0,VALID,24.7353,VALID,330,VALID,0,
2009-10-06, 02:44:04,VALID,1003.2,VALID,0,VALID,93.3012,VALID,0,VALID,24.6964,VALID,330,VALID,0,
2009-10-06, 02:45:04,VALID,1003.23,VALID,0,VALID,93.2859,VALID,0,VALID,24.6574,VALID,330,VALID,0,
2009-10-06, 02:46:04,VALID,1003.21,VALID,0,VALID,93.2783,VALID,0,VALID,24.6185,VALID,330,VALID,0,
2009-10-06, 02:47:04,VALID,1003.22,VALID,0,VALID,93.3088,VALID,0,VALID,24.6185,VALID,330,VALID,0,
2009-10-06, 02:48:04,VALID,1003.19,VALID,0,VALID,93.3546,VALID,0,VALID,24.5796,VALID,330,VALID,0,
2009-10-06, 02:49:04,VALID,1003.24,VALID,0,VALID,93.4004,VALID,0,VALID,24.5406,VALID,330,VALID,0,
2009-10-06, 02:50:04,VALID,1003.23,VALID,0,VALID,93.4385,VALID,0,VALID,24.5212,VALID,330,VALID,0,
2009-10-06, 02:51:04,VALID,1003.23,VALID,0,VALID,93.4767,VALID,0,VALID,24.4822,VALID,330,VALID,0,
2009-10-06, 02:52:04,VALID,1003.23,VALID,0,VALID,93.4767,VALID,0,VALID,24.4433,VALID,330,VALID,0,
2009-10-06, 02:53:04,VALID,1003.23,VALID,0,VALID,93.5987,VALID,0,VALID,24.4628,VALID,330,VALID,0,
2009-10-06, 02:54:04,VALID,1003.19,VALID,0,VALID,93.7742,VALID,0,VALID,24.5017,VALID,330,VALID,0,
2009-10-06, 02:55:04,VALID,1003.18,VALID,0,VALID,93.8505,VALID,0,VALID,24.5035,VALID,330,VALID,0,
2009-10-06, 02:56:04,VALID,1003.19,VALID,0,VALID,93.8657,VALID,0,VALID,24.4628,VALID,330,VALID,0,
2009-10-06, 02:57:04,VALID,1003.18,VALID,0,VALID,93.881,VALID,0,VALID,24.4433,VALID,330,VALID,0,
2009-10-06, 02:58:04,VALID,1003.19,VALID,0,VALID,93.9649,VALID,0,VALID,24.4238,VALID,330,VALID,0,
2009-10-06, 02:59:04,VALID,1003.19,VALID,0,VALID,94.0259,VALID,0,VALID,24.422,VALID,330,VALID,0,
2009-10-06, 03:00:04,VALID,1003.22,VALID,0,VALID,94.0946,VALID,0,VALID,24.4238,VALID,330,VALID,0,
2009-10-06, 03:01:04,VALID,1003.23,VALID,0,VALID,94.1404,VALID,0,VALID,24.4238,VALID,330,VALID,0,
2009-10-06, 03:02:04,VALID,1003.21,VALID,0,VALID,94.1633,VALID,0,VALID,24.4043,VALID,330,VALID,0,
2009-10-06, 03:03:04,VALID,1003.22,VALID,0,VALID,94.1785,VALID,0,VALID,24.4043,VALID,330,VALID,0,
2009-10-06, 03:04:04,VALID,1003.24,VALID,0,VALID,94.2167,VALID,0,VALID,24.3636,VALID,330,VALID,0,
2009-10-06, 03:05:04,VALID,1003.23,VALID,0,VALID,94.209,VALID,0,VALID,24.3459,VALID,330,VALID,0,
2009-10-06, 03:06:04,VALID,1003.23,VALID,0,VALID,94.2243,VALID,0,VALID,24.3265,VALID,330,VALID,0,
2009-10-06, 03:07:04,VALID,1003.23,VALID,0,VALID,94.2319,VALID,0,VALID,24.2875,VALID,330,VALID,0,
2009-10-06, 03:08:04,VALID,1003.21,VALID,0,VALID,94.2777,VALID,0,VALID,24.2857,VALID,330,VALID,0,
2009-10-06, 03:09:04,VALID,1003.21,VALID,0,VALID,94.3235,VALID,0,VALID,24.2875,VALID,330,VALID,0,
2009-10-06, 03:10:04,VALID,1003.2,VALID,0,VALID,94.3464,VALID,0,VALID,24.2681,VALID,330,VALID,0,
2009-10-06, 03:11:04,VALID,1003.21,VALID,0,VALID,94.3311,VALID,0,VALID,24.2291,VALID,330,VALID,0,
2009-10-06, 03:12:04,VALID,1003.2,VALID,0,VALID,94.3692,VALID,0,VALID,24.1884,VALID,330,VALID,0,
2009-10-06, 03:13:04,VALID,1003.23,VALID,0,VALID,94.3845,VALID,0,VALID,24.1902,VALID,330,VALID,0,
2009-10-06, 03:14:04,VALID,1003.22,VALID,0,VALID,94.3921,VALID,0,VALID,24.1707,VALID,330,VALID,0,
2009-10-06, 03:15:04,VALID,1003.25,VALID,0,VALID,94.4227,VALID,0,VALID,24.1707,VALID,330,VALID,0,
2009-10-06, 03:16:04,VALID,1003.24,VALID,0,VALID,94.4379,VALID,0,VALID,24.1707,VALID,330,VALID,0,
2009-10-06, 03:17:04,VALID,1003.23,VALID,0,VALID,94.4684,VALID,0,VALID,24.1513,VALID,330,VALID,0,
2009-10-06, 03:18:04,VALID,1003.25,VALID,0,VALID,94.5142,VALID,0,VALID,24.1902,VALID,330,VALID,0,
2009-10-06, 03:19:04,VALID,1003.26,VALID,0,VALID,94.5829,VALID,0,VALID,24.1902,VALID,330,VALID,0,
2009-10-06, 03:20:04,VALID,1003.25,VALID,0,VALID,94.6057,VALID,0,VALID,24.1689,VALID,330,VALID,0,
2009-10-06, 03:21:04,VALID,1003.24,VALID,0,VALID,94.6591,VALID,0,VALID,24.231,VALID,330,VALID,0,
2009-10-06, 03:22:04,VALID,1003.24,VALID,0,VALID,94.6897,VALID,0,VALID,24.192,VALID,330,VALID,0,
2009-10-06, 03:23:04,VALID,1003.27,VALID,0,VALID,94.682,VALID,0,VALID,24.1689,VALID,330,VALID,0,
2009-10-06, 03:24:04,VALID,1003.28,VALID,0,VALID,94.7049,VALID,0,VALID,24.1707,VALID,330,VALID,0,
2009-10-06, 03:25:04,VALID,1003.27,VALID,0,VALID,94.7049,VALID,0,VALID,24.1513,VALID,330,VALID,0,
2009-10-06, 03:26:04,VALID,1003.27,VALID,0,VALID,94.7278,VALID,0,VALID,24.1707,VALID,330,VALID,0,
2009-10-06, 03:27:04,VALID,1003.32,VALID,0,VALID,94.7736,VALID,0,VALID,24.1902,VALID,330,VALID,0,
2009-10-06, 03:28:04,VALID,1003.29,VALID,0,VALID,94.7736,VALID,0,VALID,24.1513,VALID,330,VALID,0,
2009-10-06, 03:29:04,VALID,1003.3,VALID,0,VALID,94.7507,VALID,0,VALID,24.1318,VALID,330,VALID,0,
2009-10-06, 03:30:04,VALID,1003.3,VALID,0,VALID,94.7354,VALID,0,VALID,24.1123,VALID,330,VALID,0,
2009-10-06, 03:31:04,VALID,1003.28,VALID,0,VALID,94.8041,VALID,0,VALID,24.1513,VALID,330,VALID,0,
2009-10-06, 03:32:04,VALID,1003.29,VALID,0,VALID,94.827,VALID,0,VALID,24.1513,VALID,330,VALID,0,
2009-10-06, 03:33:04,VALID,1003.27,VALID,0,VALID,94.8346,VALID,0,VALID,24.1494,VALID,330,VALID,0,
2009-10-06, 03:34:04,VALID,1003.28,VALID,0,VALID,94.8194,VALID,0,VALID,24.1513,VALID,330,VALID,0,
2009-10-06, 03:35:04,VALID,1003.27,VALID,0,VALID,94.766,VALID,0,VALID,24.1123,VALID,330,VALID,0,
2009-10-06, 03:36:04,VALID,1003.25,VALID,0,VALID,94.7507,VALID,0,VALID,24.0521,VALID,330,VALID,0,
2009-10-06, 03:37:04,VALID,1003.27,VALID,0,VALID,94.7202,VALID,0,VALID,24.0345,VALID,330,VALID,0,
2009-10-06, 03:38:04,VALID,1003.26,VALID,0,VALID,94.6973,VALID,0,VALID,24.0345,VALID,330,VALID,0,
2009-10-06, 03:39:04,VALID,1003.28,VALID,0,VALID,94.7278,VALID,0,VALID,24.0734,VALID,330,VALID,0,
2009-10-06, 03:40:04,VALID,1003.29,VALID,0,VALID,94.7583,VALID,0,VALID,24.0734,VALID,330,VALID,0,
2009-10-06, 03:41:04,VALID,1003.32,VALID,0,VALID,94.7583,VALID,0,VALID,24.0132,VALID,330,VALID,0,
2009-10-06, 03:42:04,VALID,1003.34,VALID,0,VALID,94.7583,VALID,0,VALID,24.0521,VALID,330,VALID,0,
2009-10-06, 03:43:04,VALID,1003.35,VALID,0,VALID,94.7888,VALID,0,VALID,24.0734,VALID,330,VALID,0,
2009-10-06, 03:44:04,VALID,1003.36,VALID,0,VALID,94.7965,VALID,0,VALID,24.0734,VALID,330,VALID,0,
2009-10-06, 03:45:04,VALID,1003.39,VALID,0,VALID,94.8422,VALID,0,VALID,24.0734,VALID,330,VALID,0,
2009-10-06, 03:46:04,VALID,1003.42,VALID,0,VALID,94.827,VALID,0,VALID,24.0539,VALID,330,VALID,0,
2009-10-06, 03:47:04,VALID,1003.4,VALID,0,VALID,94.8194,VALID,0,VALID,24.0752,VALID,330,VALID,0,